Date,TemperatureHighF,TemperatureAvgF,TemperatureLowF,DewpointHighF,DewpointAvgF,DewpointLowF,HumidityHigh,HumidityAvg,HumidityLow,PressureMaxIn,PressureMinIn,WindSpeedMaxMPH,WindSpeedAvgMPH,GustSpeedMaxMPH,PrecipitationSumIn
2014-1-1,82.0,77.1,73.2,76.0,71.9,64.8,95,84,71,29.98,29.83,10,4,19,0.08
2014-1-2,87.1,78.2,71.1,73.2,69.9,66.2,94,77,51,29.83,29.65,13,3,22,0.00
2014-1-3,74.3,66.0,60.6,71.9,56.5,44.9,92,72,55,29.97,29.67,15,7,25,0.00
2014-1-4,76.1,71.6,67.3,71.5,65.0,55.3,94,80,65,29.97,29.85,10,3,17,0.09
2014-1-5,84.6,76.9,70.0,76.1,71.1,66.8,92,83,70,29.86,29.73,12,3,25,0.04
2014-1-6,86.5,73.2,57.7,74.5,65.5,32.3,96,78,38,29.98,29.74,17,4,27,0.15
2014-1-7,57.7,53.5,48.2,51.2,42.9,28.9,90,69,38,30.09,29.97,17,8,27,0.01
2014-1-8,70.9,64.1,51.1,67.5,61.7,48.6,100,92,84,30.10,29.99,15,6,27,0.20
2014-1-9,78.6,74.9,70.7,75.8,71.9,67.2,97,90,86,30.03,29.91,14,5,24,0.12
2014-1-10,82.6,77.6,70.5,75.4,73.0,68.6,94,86,76,29.95,29.85,11,3,18,0.00
2014-1-11,86.2,78.6,73.4,76.6,73.4,71.3,95,84,69,29.90,29.75,12,4,24,0.00
2014-1-12,84.7,72.2,63.7,71.6,64.9,57.6,95,79,45,29.95,29.81,11,4,17,0.00
2014-1-13,83.8,76.0,69.1,72.5,69.0,63.4,91,79,64,29.94,29.82,9,2,15,0.00
2014-1-14,84.6,76.1,67.8,74.8,69.3,66.1,95,80,57,29.82,29.71,11,3,18,0.00
2014-1-15,72.9,65.5,58.1,67.3,59.7,52.5,96,82,63,29.82,29.72,11,3,16,0.22
2014-1-16,59.5,55.9,46.9,55.8,42.9,28.4,89,64,32,29.94,29.73,17,6,27,0.00
2014-1-17,68.0,55.2,43.7,45.0,39.4,33.7,84,57,39,30.01,29.89,8,3,13,0.00
2014-1-18,67.5,57.3,48.7,50.8,41.1,31.9,78,56,31,30.03,29.93,12,3,19,0.00
2014-1-19,72.3,55.9,43.3,47.9,37.4,29.7,75,52,26,30.08,29.93,9,3,15,0.00
2014-1-20,77.4,66.0,54.1,60.0,55.3,46.8,90,70,50,29.99,29.81,10,2,16,0.00
2014-1-21,75.0,66.5,62.4,63.1,59.3,57.0,92,78,57,29.85,29.66,11,4,17,0.00
2014-1-22,64.0,57.0,46.4,61.2,42.4,31.8,94,61,31,29.96,29.67,14,6,22,0.00
2014-1-23,74.3,58.0,44.4,55.5,45.8,33.4,82,65,45,30.08,29.95,10,4,16,0.00
2014-1-24,71.1,62.1,56.8,55.6,53.2,51.6,88,74,53,30.17,30.00,14,6,23,0.00
2014-1-25,78.8,65.4,52.5,63.4,56.4,50.0,93,75,47,30.01,29.82,9,2,13,0.00
2014-1-26,82.0,68.7,55.6,64.8,59.3,51.9,95,74,39,29.88,29.76,8,2,11,0.00
2014-1-27,87.3,72.9,59.4,69.7,63.2,55.4,95,74,35,29.83,29.70,9,2,14,0.00
2014-1-28,86.0,73.3,61.3,70.9,66.9,59.9,96,81,57,29.87,29.74,10,2,15,0.00
2014-1-29,81.7,69.9,65.5,75.2,68.0,64.1,100,94,76,29.86,29.76,11,3,17,0.13
2014-1-30,70.5,66.5,62.1,70.2,65.6,61.4,100,97,87,29.89,29.81,11,4,17,0.40
2014-1-31,85.1,75.9,66.4,76.4,72.7,65.2,100,90,71,29.87,29.78,9,2,15,1.25
2014-2-1,86.0,78.0,72.5,75.5,72.8,71.0,97,85,64,29.92,29.84,10,2,16,0.00
2014-2-2,85.3,77.5,70.9,75.7,72.1,69.4,100,84,66,29.94,29.83,10,3,17,0.04
2014-2-3,86.2,78.8,75.0,75.2,73.3,71.1,94,84,69,29.90,29.80,11,3,18,0.00
2014-2-4,85.3,78.5,72.7,75.8,73.0,70.4,95,84,68,29.92,29.83,11,4,20,0.00
2014-2-5,87.4,77.8,71.1,75.2,72.8,68.8,96,85,63,29.88,29.78,14,4,24,0.79
2014-2-6,87.6,77.8,71.6,76.6,72.2,70.1,97,84,60,29.90,29.80,8,1,13,0.05
2014-2-7,86.9,75.9,69.1,73.6,70.8,67.7,97,85,60,29.92,29.83,6,2,10,0.00
2014-2-8,89.8,76.3,68.0,75.9,70.1,65.1,100,83,46,29.89,29.76,10,2,15,0.00
2014-2-9,80.6,70.4,65.7,70.6,66.2,61.4,97,87,70,29.87,29.77,11,3,15,0.00
2014-2-10,83.7,72.9,64.0,70.6,66.1,62.8,96,80,60,29.88,29.77,9,3,16,0.00
2014-2-11,86.5,76.8,70.7,73.6,68.6,64.0,92,77,57,29.85,29.76,9,2,17,0.00
2014-2-12,84.6,73.4,61.9,72.9,67.0,60.0,100,81,62,29.83,29.61,17,4,30,0.52
2014-2-13,76.8,67.4,56.7,69.4,59.7,48.9,97,78,54,29.77,29.53,16,6,54,0.02
2014-2-14,74.5,60.3,47.5,51.9,46.1,36.3,93,64,28,29.87,29.74,12,2,17,0.00
2014-2-15,81.7,66.6,55.6,62.6,56.1,48.7,90,71,44,29.92,29.75,13,4,21,0.00
2014-2-16,81.0,65.2,50.2,57.7,50.9,44.8,88,63,31,29.98,29.86,8,2,13,0.00
2014-2-17,80.6,68.8,56.7,62.3,57.4,53.2,89,69,52,30.01,29.92,10,2,15,0.00
2014-2-18,83.3,72.1,59.0,69.1,60.4,56.4,94,69,46,30.02,29.93,8,2,14,0.00
2014-2-19,84.0,75.9,69.8,66.8,64.1,60.9,79,68,51,29.97,29.86,10,3,15,0.00
2014-2-20,84.6,77.8,72.3,72.5,68.3,64.5,86,73,59,29.96,29.85,10,4,18,0.00
2014-2-21,87.1,79.2,75.4,74.1,72.2,71.1,89,80,62,29.89,29.80,13,5,24,0.00
2014-2-22,88.3,78.0,68.9,75.9,70.9,67.4,96,80,55,29.90,29.78,9,2,16,0.00
2014-2-23,88.7,78.4,68.2,74.8,71.6,66.6,96,81,59,29.87,29.77,11,3,17,0.00
2014-2-24,90.9,79.1,69.1,74.5,69.7,62.2,96,75,41,29.82,29.73,10,2,15,0.00
2014-2-25,88.9,77.9,70.2,74.5,69.2,62.9,100,77,44,29.82,29.69,11,3,14,0.00
2014-2-26,87.8,76.1,66.0,71.6,66.3,60.5,96,75,42,29.75,29.54,14,4,22,0.00
2014-2-27,73.8,73.7,73.2,71.3,71.0,70.5,93,91,91,29.59,29.55,8,7,14,0.00
2014-2-28,73.8,73.8,73.8,71.0,71.0,71.0,91,91,91,29.55,29.55,8,8,12,0.00
2014-3-1,73.8,73.8,73.8,71.0,71.0,71.0,91,91,91,29.55,29.55,8,8,12,0.00
2014-3-2,83.8,75.6,70.3,73.5,66.7,59.1,91,76,47,29.92,29.55,9,5,16,0.42
2014-3-3,86.0,75.4,63.3,68.8,62.8,59.0,94,67,44,29.85,29.74,9,2,17,0.00
2014-3-4,85.8,74.6,64.8,67.1,64.6,60.9,95,73,48,29.84,29.73,8,2,11,0.00
2014-3-5,87.4,76.0,67.6,72.3,67.9,63.9,92,77,51,29.80,29.68,11,2,22,0.00
2014-3-6,89.1,74.0,66.2,76.6,69.2,65.1,100,86,51,29.76,29.55,17,4,37,0.37
2014-3-7,81.7,71.8,59.5,69.5,61.7,52.7,97,73,41,29.80,29.55,16,6,28,0.02
2014-3-8,77.4,64.7,55.6,61.8,55.3,49.5,92,73,45,29.91,29.78,9,3,14,0.00
2014-3-9,84.2,71.2,61.7,67.0,61.8,59.3,96,74,48,29.94,29.84,8,2,13,0.00
2014-3-10,67.1,65.0,64.2,63.3,62.2,60.2,92,91,84,29.88,29.83,4,1,7,0.00
2014-3-11,64.8,64.8,64.8,62.4,62.4,62.4,92,92,92,29.84,29.84,1,1,4,0.00
2014-3-12,64.8,64.8,64.8,62.4,62.4,62.4,92,92,92,29.84,29.84,1,1,4,0.00
2014-3-13,64.8,64.8,64.8,62.4,62.4,62.4,92,92,92,29.84,29.84,1,1,4,0.00
2014-3-14,93.6,73.9,69.4,80.3,58.0,51.9,93,58,45,29.92,29.66,11,4,20,0.61
2014-3-15,84.6,73.7,60.4,62.1,57.8,52.6,91,59,38,29.88,29.75,10,2,18,0.00
2014-3-16,84.4,76.4,71.1,67.8,63.7,59.2,79,65,53,29.76,29.52,15,5,27,0.00
2014-3-17,88.0,79.6,74.7,74.5,71.4,67.8,88,77,58,29.55,29.42,14,5,22,0.00
2014-3-18,81.1,75.1,66.6,73.8,65.4,57.1,96,73,48,29.71,29.40,18,6,28,0.25
2014-3-19,84.6,73.3,62.1,68.6,63.5,58.7,94,73,54,29.77,29.68,10,2,14,0.00
2014-3-20,85.3,75.9,66.0,71.6,68.0,63.0,93,77,61,29.75,29.65,10,3,19,0.00
2014-3-21,86.5,74.0,61.5,72.8,67.0,59.8,97,80,60,29.76,29.67,12,3,20,0.00
2014-3-22,83.8,77.7,72.5,75.1,70.6,62.9,94,79,60,29.79,29.67,11,4,19,0.24
2014-3-23,91.6,79.6,69.8,70.9,66.8,61.8,90,67,44,29.76,29.63,11,3,18,0.00
2014-3-24,79.9,73.2,66.9,72.0,68.2,63.2,96,85,63,29.75,29.60,10,3,16,0.14
2014-3-25,84.6,71.4,64.2,73.4,66.8,50.5,100,86,57,29.73,29.51,16,4,25,0.21
2014-3-26,71.2,62.6,54.9,55.4,48.9,38.7,81,62,44,29.96,29.73,15,7,24,0.00
2014-3-27,78.8,71.3,60.3,63.8,57.7,51.9,83,63,49,30.00,29.88,13,5,22,0.00
2014-3-28,84.6,77.0,72.1,71.7,65.5,60.9,85,68,56,29.90,29.75,17,6,26,0.00
2014-3-29,84.0,77.6,69.8,76.2,72.7,66.9,93,85,70,29.80,29.62,16,5,27,0.28
2014-3-30,80.6,71.9,62.2,68.8,57.5,42.2,95,65,29,29.78,29.61,13,4,19,0.01
2014-3-31,82.4,69.8,59.2,64.2,57.8,51.8,87,66,50,29.84,29.76,11,3,16,0.00
2014-4-1,83.8,71.8,59.0,66.6,60.4,57.3,96,70,46,29.88,29.79,11,2,15,0.00
2014-4-2,83.3,73.2,61.5,64.5,60.1,56.8,87,65,46,29.90,29.82,11,3,17,0.00
2014-4-3,84.2,76.7,70.3,66.2,63.0,59.7,73,63,53,29.86,29.76,12,4,17,0.00
2014-4-4,86.9,78.5,72.7,66.7,64.7,60.3,76,63,47,29.78,29.70,12,4,19,0.00
2014-4-5,88.2,78.2,68.0,70.0,66.7,64.1,93,70,47,29.75,29.67,8,2,15,0.00
2014-4-6,88.5,77.8,66.9,69.9,67.7,63.5,95,73,51,29.75,29.63,12,3,18,0.00
2014-4-7,88.7,80.9,75.0,76.8,72.6,68.8,93,77,58,29.70,29.57,13,5,24,0.00
2014-4-8,91.2,79.1,68.0,76.9,72.0,64.0,95,80,53,29.63,29.44,18,7,30,0.19
2014-4-9,78.8,71.4,65.1,65.9,56.9,48.9,90,63,37,29.85,29.58,12,5,24,0.00
2014-4-10,81.9,72.8,62.8,58.9,55.1,51.7,73,55,39,29.96,29.84,12,4,20,0.00
2014-4-11,83.7,74.8,65.5,70.9,63.8,57.2,90,70,52,29.93,29.82,11,3,17,0.05
2014-4-12,84.6,77.2,69.3,67.8,65.1,61.4,86,67,50,29.88,29.77,14,4,22,0.00
2014-4-13,80.6,74.6,69.4,74.8,70.7,-31.8,100,88,71,29.80,29.69,14,4,101,2.44
2014-4-14,89.1,80.6,74.1,75.5,73.7,72.0,96,80,60,29.71,29.60,12,4,20,0.00
2014-4-15,90.5,79.5,71.6,78.6,73.9,69.8,97,84,60,29.64,29.52,14,3,22,0.27
2014-4-16,86.9,76.7,71.2,75.0,71.2,68.2,100,84,65,29.78,29.62,12,5,20,0.17
2014-4-17,84.2,77.2,73.0,76.6,73.5,70.8,100,88,73,29.85,29.73,11,5,20,0.51
2014-4-18,86.7,79.7,72.7,74.9,73.0,70.2,100,81,63,29.80,29.65,12,4,21,0.01
2014-4-19,91.2,79.6,69.4,75.5,70.5,61.2,97,75,49,29.69,29.56,12,5,24,0.21
2014-4-20,82.8,71.4,65.1,65.6,61.9,58.6,86,73,51,29.74,29.64,9,4,15,0.00
2014-4-21,86.0,71.8,62.1,68.4,63.5,59.8,93,76,51,29.74,29.61,13,4,18,0.00
2014-4-22,88.7,75.7,67.6,70.2,66.9,64.6,93,76,49,29.67,29.53,7,2,9,0.00
2014-4-23,90.9,76.8,65.3,72.0,66.7,62.8,94,73,40,29.66,29.56,9,2,14,0.00
2014-4-24,89.8,79.1,67.1,72.1,68.1,63.5,90,70,50,29.72,29.62,10,3,15,0.00
2014-4-25,90.1,80.0,69.4,74.3,69.7,64.8,91,72,44,29.73,29.61,8,2,13,0.00
2014-4-26,91.6,81.1,70.5,75.0,71.2,66.4,91,73,50,29.71,29.62,11,3,17,0.00
2014-4-27,93.0,82.4,70.7,74.7,68.8,62.2,93,66,37,29.73,29.64,9,3,16,0.00
2014-4-28,91.4,83.2,77.9,75.4,72.3,66.3,88,71,49,29.70,29.59,11,4,17,0.00
2014-4-29,90.3,83.7,78.4,77.6,75.5,73.0,90,77,61,29.72,29.56,13,4,23,0.00
2014-4-30,91.0,83.5,78.8,77.3,75.8,72.6,91,78,57,29.77,29.65,12,4,19,0.00
2014-5-1,91.4,83.0,78.6,76.9,74.4,70.4,91,76,56,29.74,29.64,13,4,22,0.00
2014-5-2,90.9,83.5,77.2,74.7,72.7,68.1,89,71,52,29.69,29.55,13,4,22,0.00
2014-5-3,90.3,78.4,72.7,75.8,72.7,69.9,100,84,54,29.70,29.60,13,2,23,0.51
2014-5-4,86.2,77.1,68.4,73.6,65.4,57.7,100,70,40,29.76,29.65,13,5,20,0.00
2014-5-5,89.2,78.5,68.5,69.5,64.9,59.0,91,65,44,29.76,29.67,12,3,20,0.00
2014-5-6,89.8,78.8,65.8,70.2,66.8,61.5,94,68,47,29.74,29.67,11,2,14,0.00
2014-5-7,90.0,82.3,76.6,72.1,68.9,65.6,75,64,53,29.85,29.70,12,5,19,0.00
2014-5-8,89.8,82.7,77.9,72.1,69.7,67.1,78,65,53,29.89,29.79,12,6,20,0.00
2014-5-9,88.9,82.4,77.9,72.6,69.8,67.0,76,66,54,29.89,29.79,13,6,21,0.00
2014-5-10,89.4,82.0,78.1,73.8,71.6,69.6,80,71,57,29.85,29.76,12,6,20,0.00
2014-5-11,90.5,82.2,77.9,72.9,70.2,64.0,80,68,51,29.84,29.75,11,4,17,0.00
2014-5-12,90.0,82.7,78.3,72.9,70.8,67.7,77,68,53,29.83,29.75,12,6,20,0.00
2014-5-13,88.9,81.0,74.8,79.1,74.6,71.4,96,81,65,29.76,29.67,14,5,24,0.47
2014-5-14,89.4,82.4,76.6,77.5,74.1,70.0,94,77,59,29.75,29.66,14,5,26,0.11
2014-5-15,85.8,77.7,73.6,80.1,76.2,71.9,100,95,81,29.73,29.62,14,3,21,1.05
2014-5-16,80.6,75.1,68.9,76.5,68.7,49.6,100,82,43,29.79,29.64,11,5,19,0.06
2014-5-17,85.8,76.0,66.4,64.4,60.9,57.8,79,61,43,29.81,29.74,16,6,27,0.00
2014-5-18,85.8,78.9,74.3,67.4,63.3,56.8,67,59,50,29.82,29.75,14,6,25,0.00
2014-5-19,86.5,79.8,74.8,68.2,65.3,61.7,72,61,50,29.85,29.77,15,6,24,0.00
2014-5-20,86.7,80.0,75.0,69.1,65.9,62.3,75,63,50,29.88,29.81,13,5,24,0.00
2014-5-21,91.4,79.6,73.8,67.8,64.1,60.5,69,60,46,29.88,29.81,11,4,18,0.00
2014-5-22,90.5,79.8,68.2,70.0,65.8,59.8,93,64,42,29.85,29.75,7,2,13,0.00
2014-5-23,97.0,82.3,70.9,72.8,69.6,66.3,91,68,39,29.81,29.70,9,2,14,0.00
2014-5-24,95.7,83.6,73.8,73.9,70.9,65.7,88,67,43,29.79,29.70,11,3,17,0.00
2014-5-25,91.8,83.0,73.2,75.4,72.7,67.6,92,72,48,29.83,29.72,10,2,15,0.00
2014-5-26,91.6,83.2,73.6,75.7,72.6,69.8,90,71,54,29.87,29.78,9,3,17,0.00
2014-5-27,91.8,83.1,74.8,74.8,72.3,63.3,89,71,45,29.85,29.74,9,3,14,0.00
2014-5-28,88.2,84.5,76.5,76.8,73.7,70.7,89,71,63,29.78,29.73,7,3,12,0.00
2014-5-29,88.2,88.2,88.2,74.0,74.0,74.0,63,63,63,29.77,29.77,4,4,8,0.00
2014-5-30,88.2,88.2,88.2,74.0,74.0,74.0,63,63,63,29.77,29.77,4,4,8,0.00
2014-5-31,88.2,88.2,88.2,74.0,74.0,74.0,63,63,63,29.77,29.77,4,4,8,0.00
2014-6-1,88.2,88.2,88.2,74.0,74.0,74.0,63,63,63,29.77,29.77,4,4,8,0.00
2014-6-2,88.2,88.2,88.2,74.0,74.0,74.0,63,63,63,29.77,29.77,4,4,8,0.00
2014-6-3,88.2,88.2,88.2,74.0,74.0,74.0,63,63,63,29.77,29.77,4,4,8,0.00
2014-6-4,88.2,88.2,88.2,74.0,74.0,74.0,63,63,63,29.77,29.77,4,4,8,0.00
2014-6-5,88.2,88.2,88.2,74.0,74.0,74.0,63,63,63,29.77,29.77,4,4,8,0.00
2014-6-6,88.2,88.2,88.2,74.0,74.0,74.0,63,63,63,29.77,29.77,4,4,8,0.00
2014-6-7,88.2,88.2,88.2,74.0,74.0,74.0,63,63,63,29.77,29.77,4,4,8,0.00
2014-6-8,88.2,84.7,0.0,76.7,73.3,67.7,84,68,63,29.95,29.77,8,3,14,0.00
2014-6-9,94.5,81.3,72.7,77.5,72.6,67.1,94,76,54,29.94,29.83,11,2,16,0.00
2014-6-10,94.8,80.9,73.8,79.9,73.6,68.0,92,79,50,29.98,29.90,11,1,17,0.18
2014-6-11,92.8,79.7,72.9,79.6,73.8,70.9,96,83,57,29.96,29.88,12,1,19,0.20
2014-6-12,94.1,79.0,72.7,76.0,72.0,68.3,95,81,48,30.00,29.89,15,3,25,0.39
2014-6-13,93.2,78.7,72.0,78.6,73.7,67.4,97,86,59,30.01,29.91,21,2,27,0.44
2014-6-14,93.4,81.9,72.0,81.0,75.5,71.7,100,82,56,30.04,29.93,10,2,15,0.05
2014-6-15,94.1,84.6,77.4,79.8,76.6,74.1,92,77,58,30.06,29.96,10,3,17,0.01
2014-6-16,91.8,83.8,77.7,77.5,73.8,69.4,94,73,52,30.09,30.00,10,3,17,0.00
2014-6-17,85.5,78.3,71.8,75.1,72.7,69.7,100,83,66,30.10,29.99,12,2,21,0.37
2014-6-18,88.5,79.7,73.4,78.3,73.6,70.3,95,82,63,30.05,29.98,11,2,16,0.05
2014-6-19,92.3,79.3,73.2,78.7,73.1,67.8,95,83,55,30.06,29.97,14,2,21,0.28
2014-6-20,92.3,79.3,72.0,77.4,73.2,70.5,97,82,53,30.03,29.96,8,1,14,0.00
2014-6-21,94.8,80.3,73.4,78.5,74.5,67.4,95,84,50,29.98,29.88,18,2,31,0.61
2014-6-22,97.3,81.5,75.0,78.4,75.0,69.2,96,82,47,29.96,29.85,17,2,26,0.79
2014-6-23,96.8,84.8,75.0,79.5,75.5,71.5,96,75,50,30.04,29.89,8,2,17,0.00
2014-6-24,97.3,87.0,77.5,78.0,74.8,71.9,90,68,48,30.09,30.01,8,3,13,0.00
2014-6-25,97.3,85.7,76.8,79.9,76.9,73.7,92,76,54,30.08,29.98,9,2,17,0.01
2014-6-26,96.4,85.4,75.6,79.4,76.0,68.1,95,75,53,30.05,29.91,8,2,13,0.00
2014-6-27,97.5,85.0,77.5,82.3,76.3,31.9,94,76,56,30.07,29.95,9,2,17,0.34
2014-6-28,96.6,85.9,75.6,78.8,74.7,71.0,93,71,44,30.08,29.99,8,2,14,0.00
2014-6-29,99.9,86.3,77.9,77.4,74.2,69.4,89,69,43,30.07,29.96,13,2,19,0.00
2014-6-30,96.3,83.5,75.0,77.4,74.8,72.7,94,76,53,30.00,29.83,15,4,24,0.00
2014-7-1,90.7,83.0,78.4,77.3,75.1,71.0,92,78,54,29.88,29.75,11,4,17,0.00
2014-7-2,92.7,81.0,73.0,79.3,76.1,71.2,97,85,62,29.94,29.78,23,3,40,0.58
2014-7-3,96.6,85.7,78.6,80.7,76.5,68.4,94,75,46,30.05,29.92,12,3,27,0.00
2014-7-4,96.8,84.0,76.6,81.3,75.7,68.9,92,77,55,30.07,30.01,11,2,17,0.05
2014-7-5,95.0,83.1,76.3,80.1,75.8,73.1,94,79,57,30.07,29.99,8,1,15,0.00
2014-7-6,87.8,81.6,76.3,79.8,76.1,73.3,93,83,73,30.05,29.95,8,1,14,1.04
2014-7-7,94.6,84.4,77.0,81.5,77.0,73.6,96,79,59,30.05,29.94,7,2,11,0.28
2014-7-8,95.9,83.1,76.8,79.8,76.7,73.5,97,82,56,30.09,29.99,9,2,15,0.07
2014-7-9,95.9,79.9,73.2,82.3,76.4,71.9,100,90,53,30.08,30.00,11,1,17,1.29
2014-7-10,94.1,81.5,74.5,82.2,75.8,69.4,100,84,47,30.07,29.99,8,2,16,0.05
2014-7-11,95.2,86.2,78.1,79.6,77.0,74.7,95,75,53,30.08,29.99,8,3,17,0.00
2014-7-12,95.0,86.2,78.3,81.4,76.5,72.7,89,73,53,30.07,29.99,11,3,17,0.04
2014-7-13,95.4,86.1,80.6,80.5,76.7,73.9,87,74,54,30.04,29.97,11,3,17,0.04
2014-7-14,95.9,86.8,78.8,79.7,75.9,71.4,93,71,53,30.03,29.96,8,2,14,0.01
2014-7-15,94.8,83.7,78.3,81.2,76.2,73.4,92,79,55,29.98,29.90,10,1,17,0.17
2014-7-16,92.8,81.8,77.2,78.6,76.2,73.6,97,84,55,29.96,29.88,17,2,27,0.65
2014-7-17,91.9,81.1,73.8,79.5,76.2,71.5,100,85,57,30.01,29.89,18,2,27,0.66
2014-7-18,99.0,86.1,77.0,80.0,77.1,73.7,94,76,46,30.03,29.93,10,2,15,0.00
2014-7-19,95.4,86.2,77.2,81.6,77.2,74.7,95,75,56,30.02,29.93,8,2,11,0.00
2014-7-20,97.9,87.9,77.7,81.0,77.1,74.6,93,72,50,30.00,29.91,8,2,12,0.00
2014-7-21,97.7,85.0,79.9,79.1,76.8,74.0,88,77,53,29.99,29.92,12,2,18,0.00
2014-7-22,94.1,84.1,78.1,80.8,77.2,74.6,93,80,59,30.02,29.91,8,2,13,0.07
2014-7-23,94.8,84.4,78.4,81.8,78.2,75.2,96,82,60,30.03,29.94,11,2,18,0.70
2014-7-24,96.6,86.4,77.9,80.1,76.4,73.3,95,73,52,30.01,29.92,11,2,17,0.01
2014-7-25,97.5,87.4,77.0,80.2,77.0,74.0,93,73,51,30.03,29.94,8,2,13,0.00
2014-7-26,95.4,85.7,78.8,81.2,77.6,72.9,94,77,59,30.06,26.99,8,1,14,0.27
2014-7-27,97.5,88.0,78.3,80.3,76.0,73.0,92,69,48,30.04,29.97,8,2,16,0.00
2014-7-28,99.0,89.7,81.9,80.5,77.5,73.3,89,69,45,30.02,29.91,9,2,14,0.00
2014-7-29,101.1,86.7,80.2,80.6,76.9,69.9,92,75,40,29.96,29.86,11,2,17,0.26
2014-7-30,95.9,83.1,74.8,83.0,77.9,72.9,97,85,59,29.94,29.85,11,2,18,0.70
2014-7-31,95.9,83.4,78.8,80.2,77.3,74.4,95,83,53,29.95,29.87,10,2,17,0.00
2014-8-1,97.5,87.5,79.2,81.9,77.7,75.6,92,74,52,29.94,29.85,8,2,14,0.07
2014-8-2,97.2,86.5,79.3,82.0,78.3,75.4,95,78,54,29.91,29.81,8,2,12,0.22
2014-8-3,90.7,82.7,72.1,81.0,77.9,71.8,100,86,66,29.90,29.79,14,2,23,1.16
2014-8-4,88.5,79.6,74.7,79.3,76.5,73.8,100,91,72,29.96,29.80,14,3,24,0.50
2014-8-5,96.3,84.9,76.6,80.0,76.4,71.2,97,77,51,30.01,29.91,11,2,17,0.00
2014-8-6,96.6,86.6,78.1,79.5,76.7,74.4,92,73,50,30.00,29.92,8,2,12,0.00
2014-8-7,98.1,86.8,74.8,80.2,76.6,69.5,92,73,50,29.97,29.86,14,2,24,0.14
2014-8-8,99.0,85.7,78.1,82.1,77.3,74.9,95,77,52,29.99,29.90,9,2,14,0.02
2014-8-9,95.5,85.9,78.6,81.5,77.8,71.3,95,78,52,30.02,29.93,11,1,17,0.44
2014-8-10,98.1,87.4,77.9,82.4,77.1,71.0,97,73,50,30.01,29.92,8,2,14,0.00
2014-8-11,97.7,87.4,76.6,80.5,75.4,72.4,93,69,49,30.01,29.92,11,2,19,0.00
2014-8-12,96.8,87.0,78.8,79.1,75.5,72.5,90,70,51,29.98,29.89,10,2,17,0.00
2014-8-13,95.7,86.9,78.1,80.0,76.2,72.2,92,72,53,29.98,29.89,10,2,15,0.00
2014-8-14,99.0,85.0,77.9,80.5,77.8,74.4,100,80,52,29.99,29.91,11,2,19,0.77
2014-8-15,95.0,81.2,74.5,80.6,77.0,72.9,100,88,58,30.06,29.90,17,1,24,1.81
2014-8-16,98.1,83.4,75.6,84.2,76.8,71.2,100,82,51,30.04,29.93,11,2,17,0.01
2014-8-17,97.9,86.0,77.0,83.3,77.5,72.9,100,77,53,30.04,29.97,9,1,14,0.00
2014-8-18,99.0,88.2,77.2,81.9,77.4,74.6,97,72,47,30.02,29.90,9,2,13,0.00
2014-8-19,99.0,89.1,79.0,81.4,77.7,72.0,93,71,46,29.98,29.89,8,2,12,0.00
2014-8-20,99.0,88.9,78.4,80.7,77.6,71.4,92,71,50,30.03,29.91,8,2,13,0.00
2014-8-21,98.4,89.1,80.8,81.9,78.2,75.3,93,71,52,30.05,29.96,9,2,15,0.00
2014-8-22,98.4,89.5,80.6,82.1,77.6,75.3,92,69,52,30.04,29.90,8,2,14,0.00
2014-8-23,96.8,88.2,78.6,80.8,76.9,73.6,94,70,52,29.93,29.78,11,3,17,0.00
2014-8-24,98.8,88.8,78.3,79.7,76.4,72.4,94,68,45,29.81,29.66,10,2,15,0.00
2014-8-25,95.5,87.2,80.8,82.5,78.8,75.3,95,77,59,29.72,29.64,15,5,27,0.00
2014-8-26,94.5,87.9,83.1,76.7,74.3,69.0,78,64,52,29.83,29.69,16,7,25,0.00
2014-8-27,96.6,87.0,77.7,77.2,73.9,69.0,88,66,49,29.92,29.80,10,3,21,0.00
2014-8-28,95.7,87.4,82.0,80.6,77.4,73.7,83,73,56,29.96,29.86,9,2,15,0.00
2014-8-29,98.6,88.1,79.3,83.4,78.2,74.0,96,74,50,30.03,29.91,11,2,20,0.01
2014-8-30,97.0,89.2,82.4,80.3,78.2,71.4,82,71,54,30.04,29.96,10,4,20,0.00
2014-8-31,96.1,87.9,80.1,79.5,76.7,70.2,83,70,54,30.04,29.97,10,4,19,0.00
2014-9-1,97.5,88.7,83.5,78.7,76.5,72.5,82,68,50,30.03,29.95,11,3,16,0.00
2014-9-2,96.1,87.7,78.8,78.5,75.3,70.8,85,68,51,30.01,29.91,8,3,16,0.00
2014-9-3,92.7,83.6,77.5,79.6,74.7,71.1,91,75,53,29.98,29.88,8,2,17,0.33
2014-9-4,109.9,84.3,75.0,81.7,75.9,63.6,100,77,50,30.05,29.94,8,2,14,0.15
2014-9-5,95.9,86.7,78.8,83.5,78.5,74.9,97,77,58,30.04,29.94,8,2,17,0.06
2014-9-6,92.1,84.7,79.5,83.0,78.8,75.5,100,82,70,29.99,29.88,9,2,13,0.12
2014-9-7,95.2,86.2,79.3,81.0,76.6,69.6,94,74,46,29.96,29.88,9,2,16,0.00
2014-9-8,95.4,85.7,73.6,82.5,76.6,71.2,100,76,53,29.99,29.90,10,2,17,0.24
2014-9-9,95.9,87.4,80.6,79.5,77.3,73.5,86,73,54,29.98,29.89,8,3,20,0.00
2014-9-10,83.5,82.6,82.0,79.2,79.0,76.0,90,89,80,29.94,29.86,6,2,11,0.00
2014-9-11,82.6,82.6,82.6,79.1,79.1,79.1,89,89,89,29.94,29.86,2,2,7,0.00
2014-9-12,82.6,82.6,82.6,79.1,79.1,79.1,89,89,89,29.94,29.84,2,2,7,0.00
2014-9-13,96.1,83.4,74.8,79.4,77.2,70.6,100,82,52,30.01,29.88,11,3,19,0.40
2014-9-14,95.9,82.7,74.1,78.2,74.3,70.1,97,78,48,30.05,29.94,9,2,15,0.01
2014-9-15,95.2,85.7,76.5,80.5,75.7,71.8,97,73,51,30.06,29.97,8,2,15,0.00
2014-9-16,87.8,82.2,77.2,81.6,77.0,74.5,95,85,73,30.03,29.87,8,1,14,0.45
2014-9-17,95.2,81.7,74.3,77.3,73.8,70.4,96,79,48,29.92,29.77,13,2,19,0.00
2014-9-18,93.0,82.6,74.8,81.9,75.7,72.4,94,81,56,29.85,29.76,10,2,15,0.07
2014-9-19,94.6,80.5,74.7,81.2,76.8,72.5,100,89,54,29.87,29.78,14,1,21,0.57
2014-9-20,91.4,80.7,76.8,80.5,76.4,71.9,100,88,56,29.88,29.76,10,2,18,0.21
2014-9-21,95.0,81.2,71.6,79.6,74.9,69.8,100,83,46,29.95,29.83,19,2,28,1.55
2014-9-22,93.9,81.6,74.8,81.9,76.1,71.4,100,85,49,29.96,29.84,8,1,13,0.01
2014-9-23,87.1,80.4,74.7,78.6,74.9,71.8,100,84,64,29.94,29.82,14,2,25,0.05
2014-9-24,92.7,82.5,74.8,79.2,75.9,72.0,99,81,58,29.96,29.86,9,2,15,0.01
2014-9-25,92.1,82.9,77.9,81.4,77.8,75.0,95,85,66,29.96,29.86,9,2,15,0.20
2014-9-26,94.3,84.0,76.6,81.3,77.7,75.0,100,82,58,29.91,29.81,8,2,15,0.05
2014-9-27,93.9,85.8,78.6,79.6,77.3,73.8,92,76,60,29.90,29.81,11,3,17,0.11
2014-9-28,94.8,85.3,78.4,78.9,77.0,73.9,95,77,56,29.89,29.80,8,2,16,0.01
2014-9-29,95.0,84.0,76.5,79.0,76.1,73.8,97,79,55,29.85,29.71,8,2,14,0.19
2014-9-30,89.6,82.1,76.8,81.0,77.7,75.7,100,87,69,29.78,29.70,14,2,21,0.63
2014-10-1,96.1,85.2,77.9,81.6,77.5,74.1,100,79,54,29.89,29.75,9,2,17,0.04
2014-10-2,98.4,86.3,78.3,79.6,77.1,72.4,96,76,47,29.94,29.83,8,2,12,0.00
2014-10-3,94.6,84.5,76.1,81.4,77.3,73.0,100,80,52,29.94,29.83,10,1,14,0.52
2014-10-4,95.9,82.2,76.3,81.8,76.7,72.4,100,85,51,29.90,29.72,16,3,30,0.43
2014-10-5,89.8,78.1,68.5,75.9,66.1,60.5,94,68,40,29.90,29.79,9,4,15,0.00
2014-10-6,88.2,79.7,70.5,73.6,69.5,66.4,93,72,56,29.97,29.86,11,3,21,0.00
2014-10-7,88.2,82.4,77.4,77.1,73.9,71.2,90,76,61,30.00,29.90,8,2,14,0.00
2014-10-8,90.5,82.5,74.3,80.0,75.3,73.0,100,80,61,30.01,29.91,8,2,14,0.00
2014-10-9,90.5,83.5,76.1,76.6,73.6,68.5,91,73,56,29.97,29.88,11,4,22,0.00
2014-10-10,90.9,84.0,79.5,74.2,71.8,69.5,80,67,52,29.94,29.84,11,4,21,0.00
2014-10-11,92.3,84.4,79.9,75.6,72.4,69.0,79,68,52,29.92,29.84,11,3,16,0.00
2014-10-12,92.8,84.0,79.2,76.4,74.1,70.7,85,73,54,29.97,29.88,9,3,16,0.00
2014-10-13,91.6,84.7,81.0,77.0,73.7,71.0,80,70,58,29.98,29.90,12,5,21,0.00
2014-10-14,92.5,85.1,76.5,79.1,76.4,71.8,94,76,61,29.93,29.82,12,3,20,0.19
2014-10-15,92.1,81.2,76.1,81.3,77.4,73.7,100,89,64,29.91,29.79,8,1,12,0.46
2014-10-16,89.4,78.9,70.9,78.2,66.9,61.0,97,69,42,29.87,29.75,11,4,16,0.01
2014-10-17,89.1,76.1,66.4,66.3,60.3,53.0,87,61,31,29.89,29.79,8,2,13,0.00
2014-10-18,90.0,77.2,64.9,69.2,65.4,61.8,97,70,43,29.89,29.79,4,1,11,0.00
2014-10-19,90.0,79.4,69.4,69.9,67.2,64.4,94,68,44,29.92,29.84,8,2,14,0.00
2014-10-20,91.4,81.0,68.9,73.7,67.5,63.6,91,65,43,29.93,29.83,8,2,12,0.00
2014-10-21,84.2,78.6,73.9,77.5,73.2,69.0,94,84,72,29.88,29.79,14,2,21,0.05
2014-10-22,88.0,79.0,72.5,77.2,73.2,70.6,97,83,60,29.88,29.79,29,1,29,0.07
2014-10-23,79.7,76.5,73.2,78.1,72.9,68.6,100,89,72,29.85,29.77,11,4,17,0.17
2014-10-24,81.3,78.8,75.0,73.0,70.8,68.9,90,76,70,29.82,29.70,14,6,24,0.05
2014-10-25,86.4,76.4,68.9,70.4,65.4,60.8,87,70,44,29.84,29.75,11,5,21,0.00
2014-10-26,85.8,75.6,66.9,67.2,63.3,55.7,91,68,40,29.93,29.78,11,3,16,0.00
2014-10-27,86.9,75.4,63.9,68.1,63.7,60.7,90,69,50,29.99,29.88,8,2,14,0.00
2014-10-28,89.4,79.6,70.2,71.6,66.5,61.6,84,65,49,30.04,29.96,8,2,14,0.00
2014-10-29,90.9,82.2,75.0,71.4,66.7,63.2,79,61,42,30.00,29.88,8,2,12,0.00
2014-10-30,89.1,78.8,68.9,72.4,67.6,62.4,100,71,43,29.89,29.75,9,1,14,0.00
2014-10-31,88.7,77.9,67.3,71.7,67.2,53.6,96,71,48,29.79,29.65,11,3,19,0.00
2014-11-1,78.3,66.7,56.3,59.4,51.2,35.3,88,60,35,30.05,29.79,15,5,26,0.00
2014-11-2,72.1,60.8,52.2,50.9,42.2,35.6,69,52,28,30.17,30.05,11,6,17,0.00
2014-11-3,78.8,69.0,58.6,58.8,53.2,45.7,71,58,46,30.20,30.11,15,6,24,0.00
2014-11-4,82.4,76.4,71.8,63.2,58.1,52.3,64,54,43,30.16,30.04,14,6,23,0.00
2014-11-5,83.8,78.3,74.8,68.0,65.5,62.1,73,65,56,30.09,29.97,14,6,24,0.00
2014-11-6,86.7,78.6,70.0,66.9,64.4,59.1,83,63,42,30.03,29.87,10,2,17,0.00
2014-11-7,86.4,75.5,68.2,68.6,65.9,61.2,92,74,49,29.89,29.78,10,2,14,0.00
2014-11-8,87.8,76.8,65.7,73.9,67.9,64.8,100,76,51,29.84,29.72,9,2,15,0.00
2014-11-9,73.6,69.8,67.1,72.4,69.1,66.5,100,98,82,29.81,29.71,8,2,12,0.51
2014-11-10,79.0,69.9,65.3,71.3,66.4,63.7,100,90,66,29.84,29.76,10,3,15,0.47
2014-11-11,83.3,71.3,61.5,66.5,60.8,54.7,100,73,41,29.85,29.75,10,4,18,0.00
2014-11-12,86.4,73.4,62.2,67.4,63.0,58.8,91,72,48,29.92,29.82,10,4,14,0.00
2014-11-13,86.7,75.9,67.1,70.2,66.6,63.9,99,75,51,29.94,29.83,7,2,13,0.00
2014-11-14,86.9,73.1,63.9,69.0,63.2,51.3,100,75,31,30.00,29.86,7,2,13,0.00
2014-11-15,83.7,73.7,64.0,70.0,65.2,62.5,96,76,55,30.08,29.97,8,3,14,0.00
2014-11-16,86.9,79.1,73.8,73.8,69.5,65.3,86,73,58,30.09,29.95,10,3,15,0.00
2014-11-17,89.4,81.5,75.2,79.0,74.8,70.5,97,81,58,29.95,29.81,12,4,20,0.05
2014-11-18,77.5,68.1,56.5,74.8,64.7,53.9,96,89,81,30.11,29.86,14,5,23,0.04
2014-11-19,66.2,60.2,54.3,62.6,57.9,53.5,100,92,86,30.15,30.06,12,5,18,0.22
2014-11-20,79.0,70.1,62.2,66.2,61.8,59.3,91,76,61,30.11,29.99,13,5,22,0.00
2014-11-21,75.2,72.5,69.8,70.1,67.5,63.8,100,84,71,30.11,30.00,14,7,24,0.17
2014-11-22,82.6,77.2,74.8,74.9,71.5,68.1,96,83,69,30.10,29.97,14,7,24,0.05
2014-11-23,86.4,80.8,77.5,78.4,75.4,73.8,90,84,72,29.97,29.81,11,4,21,0.00
2014-11-24,90.9,83.1,78.1,80.4,77.8,75.3,100,85,63,29.95,29.83,10,3,15,0.00
2014-11-25,101.8,81.5,79.0,78.6,76.6,74.5,95,85,70,29.94,29.80,16,4,25,0.00
2014-11-26,82.0,70.2,57.7,78.4,65.4,47.4,100,85,60,30.10,29.81,14,6,24,0.56
2014-11-27,75.7,63.1,55.2,55.7,46.8,37.7,84,58,31,30.19,30.04,12,5,22,0.00
2014-11-28,71.4,61.2,52.3,53.3,49.4,43.4,82,66,52,30.17,30.05,12,7,20,0.00
2014-11-29,78.1,66.2,54.9,58.9,54.4,50.9,90,68,47,30.17,30.08,11,4,18,0.00
2014-11-30,80.1,74.4,69.6,64.6,58.0,53.8,70,57,43,30.19,30.10,12,5,23,0.00
2014-12-1,81.9,75.6,70.7,71.0,66.7,63.9,100,74,61,30.18,30.07,15,5,26,0.09
2014-12-2,81.0,75.2,69.3,72.6,69.1,67.0,100,82,71,30.07,29.98,11,5,20,0.09
2014-12-3,83.7,76.7,73.2,70.1,68.1,66.1,86,75,61,30.05,29.96,11,5,19,0.00
2014-12-4,83.5,77.4,71.2,71.7,69.7,67.8,94,77,64,30.05,29.97,14,5,21,0.01
2014-12-5,83.3,76.7,71.4,77.2,71.8,68.6,100,85,69,30.11,30.00,12,4,18,0.57
2014-12-6,83.3,74.9,67.1,71.2,66.0,62.7,94,75,54,30.11,29.99,9,2,14,0.00
2014-12-7,80.1,70.7,65.1,70.6,66.1,61.6,100,86,68,29.99,29.89,11,3,15,0.00
2014-12-8,80.1,67.6,59.7,66.3,61.0,57.6,100,81,51,29.99,29.88,8,3,14,0.00
2014-12-9,70.3,62.8,55.4,63.4,58.9,50.7,100,87,67,29.96,29.85,13,5,21,0.00
2014-12-10,75.9,56.9,49.1,51.1,41.5,34.5,88,60,32,30.07,29.95,13,4,20,0.00
2014-12-11,70.3,59.1,48.9,54.4,50.6,45.5,95,75,52,30.13,30.01,9,2,13,0.00
2014-12-12,67.5,60.2,52.9,54.8,47.8,35.7,90,67,32,30.16,30.03,9,3,14,0.00
2014-12-13,76.6,63.9,54.9,57.6,52.4,47.1,85,68,45,30.06,29.94,9,4,18,0.00
2014-12-14,78.1,64.8,56.8,55.2,49.6,43.8,81,59,41,30.02,29.91,7,2,11,0.00
2014-12-15,81.3,66.4,56.8,58.8,52.4,47.3,85,62,38,30.04,29.93,6,1,10,0.00
2014-12-16,81.9,66.5,57.4,58.1,55.3,52.1,89,70,42,30.11,30.02,7,1,10,0.00
2014-12-17,83.5,68.4,54.1,59.8,56.4,51.4,94,68,41,30.12,29.98,6,1,10,0.00
2014-12-18,82.0,67.9,58.5,64.0,58.3,53.5,97,73,45,30.09,29.95,7,2,11,0.00
2014-12-19,82.2,68.3,57.0,63.9,58.9,53.5,93,74,52,30.02,29.91,7,1,11,0.00
2014-12-20,82.4,69.4,57.9,69.4,61.3,56.5,100,78,53,30.02,29.91,11,1,15,0.01
2014-12-21,84.2,72.0,61.9,75.1,65.1,60.6,100,81,56,30.02,29.91,8,1,17,0.00
2014-12-22,86.4,75.8,64.4,73.5,69.1,63.1,100,81,57,29.95,29.82,9,2,16,0.00
2014-12-23,83.7,76.6,68.7,75.9,72.0,67.3,100,86,70,29.89,29.80,14,3,21,0.00
2014-12-24,86.0,79.3,76.1,77.3,74.6,71.8,96,86,70,29.88,29.79,12,5,20,0.00
2014-12-25,78.6,71.3,68.2,76.3,64.4,54.6,100,80,54,30.08,29.86,12,4,19,0.13
2014-12-26,77.2,71.0,65.8,75.7,68.4,60.2,100,91,73,30.11,30.02,5,2,9,0.17
2014-12-27,86.7,75.9,68.9,78.7,71.6,68.6,100,87,57,30.15,30.04,7,1,11,0.00
2014-12-28,86.7,75.0,64.6,76.7,69.8,64.3,100,85,61,30.09,29.98,8,1,14,0.00
2014-12-29,86.0,76.7,69.1,78.5,71.8,68.6,100,86,62,30.05,29.96,9,2,17,0.04
2014-12-30,88.5,77.1,69.4,75.1,70.5,67.7,100,82,54,30.10,29.98,6,1,10,0.00
2014-12-31,82.2,74.3,71.1,74.4,71.9,69.7,100,92,69,30.13,30.01,8,2,11,0.00
2015-1-1,80.4,74.3,70.3,75.7,72.9,70.1,100,95,80,30.11,30.01,5,1,10,0.26
2015-1-2,84.7,78.4,72.9,75.9,73.9,71.7,100,86,71,30.15,30.06,11,3,17,0.07